Year,Month,Day,Hour,Minute,Value (Times are PST for temperature in C)
2013,02,25,09,52,7.40
2013,02,25,09,53,7.40
2013,02,25,09,54,7.40
2013,02,25,09,55,7.40
2013,02,25,09,56,7.40
2013,02,25,09,57,7.50
2013,02,25,09,58,7.50
2013,02,25,09,59,7.50
2013,02,25,10,00,7.50
2013,02,25,10,01,7.60
2013,02,25,10,02,7.60
2013,02,25,10,03,7.70
2013,02,25,10,04,7.70
2013,02,25,10,05,7.70
2013,02,25,10,06,7.70
2013,02,25,10,07,7.80
2013,02,25,10,08,7.80
2013,02,25,10,09,7.80
2013,02,25,10,10,7.80
2013,02,25,10,11,7.80
2013,02,25,10,12,7.90
2013,02,25,10,13,7.90
2013,02,25,10,14,7.90
2013,02,25,10,15,7.90
2013,02,25,10,16,7.90
2013,02,25,10,17,7.90
2013,02,25,10,18,7.90
2013,02,25,10,19,7.90
2013,02,25,10,20,7.90
2013,02,25,10,21,7.90
2013,02,25,10,22,7.90
2013,02,25,10,23,7.90
2013,02,25,10,24,7.90
2013,02,25,10,25,8.00
2013,02,25,10,26,8.00
2013,02,25,10,27,8.00
2013,02,25,10,28,8.00
2013,02,25,10,29,8.00
2013,02,25,10,30,8.00
2013,02,25,10,31,8.00
2013,02,25,10,32,8.10
2013,02,25,10,33,8.10
2013,02,25,10,34,8.10
2013,02,25,10,35,8.10
2013,02,25,10,36,8.10
2013,02,25,10,37,8.10
2013,02,25,10,38,8.00
2013,02,25,10,39,8.00
2013,02,25,10,40,8.00
2013,02,25,10,41,7.90
2013,02,25,10,42,7.90
2013,02,25,10,43,7.90
2013,02,25,10,44,7.90
2013,02,25,10,45,7.90
2013,02,25,10,46,7.90
2013,02,25,10,47,8.00
2013,02,25,10,48,8.10
2013,02,25,10,49,8.20
2013,02,25,10,50,8.30
2013,02,25,10,51,8.30
2013,02,25,10,52,8.30
2013,02,25,10,53,8.30
2013,02,25,10,54,8.30
2013,02,25,10,55,8.30
2013,02,25,10,56,8.30
2013,02,25,10,57,8.30
2013,02,25,10,58,8.50
2013,02,25,10,59,8.70
2013,02,25,11,00,8.90
2013,02,25,11,01,9.10
2013,02,25,11,02,9.20
2013,02,25,11,03,9.30
2013,02,25,11,04,9.40
2013,02,25,11,05,9.60
2013,02,25,11,06,9.70
2013,02,25,11,07,9.70
2013,02,25,11,08,9.80
2013,02,25,11,09,9.90
2013,02,25,11,10,9.90
2013,02,25,11,11,10.00
2013,02,25,11,12,10.00
2013,02,25,11,13,10.00
2013,02,25,11,14,10.10
2013,02,25,11,15,10.10
2013,02,25,11,16,10.10
2013,02,25,11,17,10.10
2013,02,25,11,18,10.10
2013,02,25,11,19,10.10
2013,02,25,11,20,10.10
2013,02,25,11,21,10.10
2013,02,25,11,22,10.20
2013,02,25,11,23,10.20
2013,02,25,11,24,10.30
2013,02,25,11,25,10.30
2013,02,25,11,26,10.30
2013,02,25,11,27,10.30
2013,02,25,11,28,10.30
2013,02,25,11,29,10.20
2013,02,25,11,30,10.20
2013,02,25,11,31,10.20
2013,02,25,11,32,10.20
2013,02,25,11,33,10.20
2013,02,25,11,34,10.30
2013,02,25,11,35,10.30
2013,02,25,11,36,10.30
2013,02,25,11,37,10.30
2013,02,25,11,38,10.30
2013,02,25,11,39,10.20
2013,02,25,11,40,10.20
2013,02,25,11,41,10.20
2013,02,25,11,42,10.20
2013,02,25,11,43,10.20
2013,02,25,11,44,10.20
2013,02,25,11,45,10.20
2013,02,25,11,46,10.20
2013,02,25,11,47,10.20
2013,02,25,11,48,10.20
2013,02,25,11,49,10.20
2013,02,25,11,50,10.20
2013,02,25,11,51,10.20
2013,02,25,11,52,10.20
2013,02,25,11,53,10.20
2013,02,25,11,54,10.20
2013,02,25,11,55,10.20
2013,02,25,11,56,10.10
2013,02,25,11,57,10.10
2013,02,25,11,58,10.20
2013,02,25,11,59,10.20
2013,02,25,12,00,10.20
2013,02,25,12,01,10.20
2013,02,25,12,02,10.20
2013,02,25,12,03,10.20
2013,02,25,12,04,10.20
2013,02,25,12,05,10.20
2013,02,25,12,06,10.20
2013,02,25,12,07,10.20
2013,02,25,12,08,10.20
2013,02,25,12,09,10.30
2013,02,25,12,10,10.30
2013,02,25,12,11,10.30
2013,02,25,12,12,10.30
2013,02,25,12,13,10.30
2013,02,25,12,14,10.40
2013,02,25,12,15,10.40
2013,02,25,12,16,10.40
2013,02,25,12,17,10.40
2013,02,25,12,18,10.50
2013,02,25,12,19,10.50
2013,02,25,12,20,10.60
2013,02,25,12,21,10.60
2013,02,25,12,22,10.60
2013,02,25,12,23,10.60
2013,02,25,12,24,10.50
2013,02,25,12,25,10.50
2013,02,25,12,26,10.40
2013,02,25,12,27,10.40
2013,02,25,12,28,10.40
2013,02,25,12,29,10.30
2013,02,25,12,30,10.20
2013,02,25,12,31,10.10
2013,02,25,12,32,10.10
2013,02,25,12,33,10.10
2013,02,25,12,34,10.00
2013,02,25,12,35,10.00
2013,02,25,12,36,10.00
2013,02,25,12,37,10.00
2013,02,25,12,38,10.00
2013,02,25,12,39,10.10
2013,02,25,12,40,10.20
2013,02,25,12,41,10.20
2013,02,25,12,42,10.10
2013,02,25,12,43,10.00
2013,02,25,12,44,9.90
2013,02,25,12,45,9.70
2013,02,25,12,46,9.50
2013,02,25,12,47,9.40
2013,02,25,12,48,9.40
2013,02,25,12,49,9.40
2013,02,25,12,50,9.40
2013,02,25,12,51,9.30
2013,02,25,12,52,9.30
2013,02,25,12,53,9.30
2013,02,25,12,54,9.20
2013,02,25,12,55,9.20
2013,02,25,12,56,9.10
2013,02,25,12,57,9.10
2013,02,25,12,58,9.10
2013,02,25,12,59,9.10
2013,02,25,13,00,9.10
2013,02,25,13,01,9.10
2013,02,25,13,02,9.10
2013,02,25,13,03,9.10
2013,02,25,13,04,9.10
2013,02,25,13,05,9.10
2013,02,25,13,06,9.10
2013,02,25,13,07,9.10
2013,02,25,13,08,9.20
2013,02,25,13,09,9.20
2013,02,25,13,10,9.10
2013,02,25,13,11,9.10
2013,02,25,13,12,9.10
2013,02,25,13,13,9.10
2013,02,25,13,14,9.10
2013,02,25,13,15,9.10
2013,02,25,13,16,9.10
2013,02,25,13,17,9.00
2013,02,25,13,18,9.00
2013,02,25,13,19,9.00
2013,02,25,13,20,9.00
2013,02,25,13,21,9.10
2013,02,25,13,22,9.10
2013,02,25,13,23,9.10
2013,02,25,13,24,9.20
2013,02,25,13,25,9.20
2013,02,25,13,26,9.20
2013,02,25,13,27,9.20
2013,02,25,13,28,9.30
2013,02,25,13,29,9.30
2013,02,25,13,30,9.30
2013,02,25,13,31,9.30
2013,02,25,13,32,9.30
2013,02,25,13,33,9.30
2013,02,25,13,34,9.30
2013,02,25,13,35,9.30
2013,02,25,13,36,9.20
2013,02,25,13,37,9.20
2013,02,25,13,38,9.20
2013,02,25,13,39,9.10
2013,02,25,13,40,9.10
2013,02,25,13,41,9.10
2013,02,25,13,42,9.10
2013,02,25,13,43,9.10
2013,02,25,13,44,9.20
2013,02,25,13,45,9.20
2013,02,25,13,46,9.20
2013,02,25,13,47,9.20
2013,02,25,13,48,9.20
2013,02,25,13,49,9.30
2013,02,25,13,50,9.30
2013,02,25,13,51,9.30
2013,02,25,13,52,9.30
2013,02,25,13,53,9.30
2013,02,25,13,54,9.40
2013,02,25,13,55,9.40
2013,02,25,13,56,9.50
2013,02,25,13,57,9.50
2013,02,25,13,58,9.50
2013,02,25,13,59,9.60
2013,02,25,14,00,9.60
2013,02,25,14,01,9.60
2013,02,25,14,02,9.50
2013,02,25,14,03,9.50
2013,02,25,14,04,9.50
2013,02,25,14,05,9.50
2013,02,25,14,06,9.50
2013,02,25,14,07,9.50
2013,02,25,14,08,9.40
2013,02,25,14,09,9.40
2013,02,25,14,10,9.40
2013,02,25,14,11,9.30
2013,02,25,14,12,9.30
2013,02,25,14,13,9.30
2013,02,25,14,14,9.30
2013,02,25,14,15,9.20
2013,02,25,14,16,9.20
2013,02,25,14,17,9.20
2013,02,25,14,18,9.20
2013,02,25,14,19,9.20
2013,02,25,14,20,9.20
2013,02,25,14,21,9.20
2013,02,25,14,22,9.20
2013,02,25,14,23,9.20
2013,02,25,14,24,9.30
2013,02,25,14,25,9.30
2013,02,25,14,26,9.30
2013,02,25,14,27,9.30
2013,02,25,14,28,9.30
2013,02,25,14,29,9.30
2013,02,25,14,30,9.30
2013,02,25,14,31,9.30
2013,02,25,14,32,9.30
2013,02,25,14,33,9.30
2013,02,25,14,34,9.20
2013,02,25,14,35,9.20
2013,02,25,14,36,9.20
2013,02,25,14,37,9.20
2013,02,25,14,38,9.20
2013,02,25,14,39,9.20
2013,02,25,14,40,9.10
2013,02,25,14,41,9.10
2013,02,25,14,42,9.10
2013,02,25,14,43,9.10
2013,02,25,14,44,9.10
2013,02,25,14,45,9.10
2013,02,25,14,46,9.20
2013,02,25,14,47,9.20
2013,02,25,14,48,9.20
2013,02,25,14,49,9.20
2013,02,25,14,50,9.20
2013,02,25,14,51,9.20
2013,02,25,14,52,9.20
2013,02,25,14,53,9.20
2013,02,25,14,54,9.20
2013,02,25,14,55,9.20
2013,02,25,14,56,9.20
2013,02,25,14,57,9.20
2013,02,25,14,58,9.20
2013,02,25,14,59,9.20
2013,02,25,15,00,9.20
2013,02,25,15,01,9.20
2013,02,25,15,02,9.20
2013,02,25,15,03,9.20
2013,02,25,15,04,9.20
2013,02,25,15,05,9.20
2013,02,25,15,06,9.10
2013,02,25,15,07,9.10
2013,02,25,15,08,9.10
2013,02,25,15,09,9.10
2013,02,25,15,10,9.10
2013,02,25,15,11,9.10
2013,02,25,15,12,9.00
2013,02,25,15,13,9.00
2013,02,25,15,14,9.00
2013,02,25,15,15,9.00
2013,02,25,15,16,9.00
2013,02,25,15,17,9.10
2013,02,25,15,18,9.10
2013,02,25,15,19,9.10
2013,02,25,15,20,9.10
2013,02,25,15,21,9.20
2013,02,25,15,22,9.10
2013,02,25,15,23,9.10
2013,02,25,15,24,9.10
2013,02,25,15,25,9.10
2013,02,25,15,26,9.10
2013,02,25,15,27,9.10
2013,02,25,15,28,9.10
2013,02,25,15,29,9.10
2013,02,25,15,30,9.10
2013,02,25,15,31,9.10
2013,02,25,15,32,9.00
2013,02,25,15,33,9.00
2013,02,25,15,34,9.00
2013,02,25,15,35,9.00
2013,02,25,15,36,9.00
2013,02,25,15,37,9.00
2013,02,25,15,38,9.00
2013,02,25,15,39,9.00
2013,02,25,15,40,9.00
2013,02,25,15,41,9.00
2013,02,25,15,42,9.00
2013,02,25,15,43,9.00
2013,02,25,15,44,9.00
2013,02,25,15,45,9.00
2013,02,25,15,46,9.00
2013,02,25,15,47,8.90
2013,02,25,15,48,8.90
2013,02,25,15,49,8.90
2013,02,25,15,50,8.90
2013,02,25,15,51,8.90
2013,02,25,15,52,8.90
2013,02,25,15,53,9.00
2013,02,25,15,54,9.00
2013,02,25,15,55,9.00
2013,02,25,15,56,9.00
2013,02,25,15,57,9.10
2013,02,25,15,58,9.10
2013,02,25,15,59,9.10
2013,02,25,16,00,9.10
2013,02,25,16,01,9.10
2013,02,25,16,02,9.10
2013,02,25,16,03,9.10
2013,02,25,16,04,9.10
2013,02,25,16,05,9.10
2013,02,25,16,06,9.10
2013,02,25,16,07,9.10
2013,02,25,16,08,9.10
2013,02,25,16,09,9.20
2013,02,25,16,10,9.20
2013,02,25,16,11,9.20
2013,02,25,16,12,9.20
2013,02,25,16,13,9.20
2013,02,25,16,14,9.20
2013,02,25,16,15,9.20
2013,02,25,16,16,9.20
2013,02,25,16,17,9.20
2013,02,25,16,18,9.20
2013,02,25,16,19,9.20
2013,02,25,16,20,9.20
2013,02,25,16,21,9.20
2013,02,25,16,22,9.20
2013,02,25,16,23,9.20
2013,02,25,16,24,9.20
2013,02,25,16,25,9.20
2013,02,25,16,26,9.20
2013,02,25,16,27,9.20
2013,02,25,16,28,9.30
2013,02,25,16,29,9.30
2013,02,25,16,30,9.30
2013,02,25,16,31,9.30
2013,02,25,16,32,9.30
2013,02,25,16,33,9.20
2013,02,25,16,34,9.20
2013,02,25,16,35,9.20
2013,02,25,16,36,9.20
2013,02,25,16,37,9.20
2013,02,25,16,38,9.20
2013,02,25,16,39,9.20
2013,02,25,16,40,9.20
2013,02,25,16,41,9.20
2013,02,25,16,42,9.20
2013,02,25,16,43,9.20
2013,02,25,16,44,9.20
2013,02,25,16,45,9.20
2013,02,25,16,46,9.20
2013,02,25,16,47,9.20
2013,02,25,16,48,9.20
2013,02,25,16,49,9.20
2013,02,25,16,50,9.20
2013,02,25,16,51,9.20
2013,02,25,16,52,9.20
